Multibeam Report for CE04_05


Ship Name: Celtic Explorer
Chief Scientist: Zhilin, D.
Geological Survey of Ireland
Source Organization: Geological Survey of Ireland (GSI)
Start Date: 2004-08-27
End Date: 2004-09-29


View ISO Metadata

Visit the full NCEI Bathymetry Viewer


Multibeam Bathymetry

Cruise Details

Project: Irish National Seabed Survey
Instrument: Simrad EM1002

Data Quality

Number of Files: 483
Number of Records: 3699959
BATHYMETRY DATA Quantity Percentage
Number of Beams 410670363 100%
Number of Good Beams 409444222 99.7%
Number of Zero Beams 1226141 0.3%
Number of Flagged Beams 0 0%

Navigation Totals

Total Time: 566.7647 hours
Total Track Length: 8747.1057 km
Average Speed: 15.433 km/hr (8.3332 knots)

Cruise Bounds

Northern Extent: 55.41578
Southern Extent: 51.402367
Western Extent: -11.934947
Eastern Extent: -7.335948

Limits

Minimum Sonar Depth -0.18 Maximum Sonar Depth 11.02
Minimum Altitude 0 Maximum Altitude 294.96
Minimum Depth 18.12 Maximum Depth 325.25

File Information

Full Resolution Bathymetry as collected (raw): 482

Files File Size Description
2054_20040823_050534_raw.mb56.gz 341.57MB Simrad multibeam vendor format
2055_20040823_130341_raw.mb56.gz 303.27MB Simrad multibeam vendor format
2056_20040823_210542_raw.mb56.gz 46.75MB Simrad multibeam vendor format
2057_20040823_220751_raw.mb56.gz 351.74MB Simrad multibeam vendor format
2058_20040824_061216_raw.mb56.gz 339.76MB Simrad multibeam vendor format
2059_20040824_183125_raw.mb56.gz 411.73MB Simrad multibeam vendor format
2060_20040825_042731_raw.mb56.gz 100.84MB Simrad multibeam vendor format
2061_20040825_071339_raw.mb56.gz 105.82MB Simrad multibeam vendor format
2062_20040825_111812_raw.mb56.gz 108.38MB Simrad multibeam vendor format
2063_20040825_144236_raw.mb56.gz 67.21MB Simrad multibeam vendor format
2064_20040825_163246_raw.mb56.gz 28.08MB Simrad multibeam vendor format
2065_20040825_172517_raw.mb56.gz 12.09MB Simrad multibeam vendor format
2066_20040825_175155_raw.mb56.gz 5.73MB Simrad multibeam vendor format
2067_20040825_184733_raw.mb56.gz 50.48MB Simrad multibeam vendor format
2068_20040825_201005_raw.mb56.gz 48.14MB Simrad multibeam vendor format
2069_20040825_215527_raw.mb56.gz 186.07MB Simrad multibeam vendor format
2070_20040826_025243_raw.mb56.gz 52.03MB Simrad multibeam vendor format
2071_20040826_041915_raw.mb56.gz 101.70MB Simrad multibeam vendor format
2073_20040827_120830_raw.mb56.gz 819.22MB Simrad multibeam vendor format
2074_20040828_083631_raw.mb56.gz 260.50MB Simrad multibeam vendor format
2075_20040828_174603_raw.mb56.gz 61.43MB Simrad multibeam vendor format
2076_20040828_194903_raw.mb56.gz 67.85MB Simrad multibeam vendor format
2077_20040828_215842_raw.mb56.gz 58.94MB Simrad multibeam vendor format
2078_20040828_235151_raw.mb56.gz 68.52MB Simrad multibeam vendor format
2079_20040829_020341_raw.mb56.gz 61.70MB Simrad multibeam vendor format
2080_20040829_040257_raw.mb56.gz 75.24MB Simrad multibeam vendor format
2081_20040829_062447_raw.mb56.gz 60.34MB Simrad multibeam vendor format
2082_20040829_090632_raw.mb56.gz 12.50MB Simrad multibeam vendor format
2083_20040829_100802_raw.mb56.gz 2.09MB Simrad multibeam vendor format
2084_20040829_103210_raw.mb56.gz 6.32MB Simrad multibeam vendor format
2085_20040829_112609_raw.mb56.gz 61.63MB Simrad multibeam vendor format
2086_20040829_141458_raw.mb56.gz 42.66MB Simrad multibeam vendor format
2087_20040829_153857_raw.mb56.gz 63.31MB Simrad multibeam vendor format
2088_20040829_201223_raw.mb56.gz 62.93MB Simrad multibeam vendor format
2089_20040829_220832_raw.mb56.gz 17.77MB Simrad multibeam vendor format
2090_20040830_003717_raw.mb56.gz 57.52MB Simrad multibeam vendor format
2091_20040830_044431_raw.mb56.gz 59.56MB Simrad multibeam vendor format
2092_20040830_063434_raw.mb56.gz 71.80MB Simrad multibeam vendor format
2093_20040830_084526_raw.mb56.gz 61.94MB Simrad multibeam vendor format
2094_20040830_104446_raw.mb56.gz 71.89MB Simrad multibeam vendor format
2095_20040830_141003_raw.mb56.gz 66.38MB Simrad multibeam vendor format
2096_20040830_161608_raw.mb56.gz 70.80MB Simrad multibeam vendor format
2097_20040830_182815_raw.mb56.gz 59.05MB Simrad multibeam vendor format
2098_20040830_202240_raw.mb56.gz 65.95MB Simrad multibeam vendor format
2099_20040830_222521_raw.mb56.gz 62.21MB Simrad multibeam vendor format
2100_20040831_002236_raw.mb56.gz 60.66MB Simrad multibeam vendor format
2101_20040831_021537_raw.mb56.gz 60.55MB Simrad multibeam vendor format
2102_20040831_040916_raw.mb56.gz 60.63MB Simrad multibeam vendor format
2103_20040831_060911_raw.mb56.gz 63.21MB Simrad multibeam vendor format
2104_20040831_080721_raw.mb56.gz 59.40MB Simrad multibeam vendor format
2105_20040831_100301_raw.mb56.gz 71.57MB Simrad multibeam vendor format
2106_20040831_125518_raw.mb56.gz 3.87MB Simrad multibeam vendor format
2107_20040831_144905_raw.mb56.gz 98.39MB Simrad multibeam vendor format
2108_20040831_180355_raw.mb56.gz 31.65MB Simrad multibeam vendor format
2109_20040831_195718_raw.mb56.gz 61.56MB Simrad multibeam vendor format
2110_20040831_215309_raw.mb56.gz 65.72MB Simrad multibeam vendor format
2111_20040831_235355_raw.mb56.gz 63.76MB Simrad multibeam vendor format
2112_20040901_015219_raw.mb56.gz 63.53MB Simrad multibeam vendor format
2113_20040901_035018_raw.mb56.gz 73.14MB Simrad multibeam vendor format
2114_20040901_060350_raw.mb56.gz 66.81MB Simrad multibeam vendor format
2115_20040901_090303_raw.mb56.gz 63.64MB Simrad multibeam vendor format
2116_20040901_105822_raw.mb56.gz 63.44MB Simrad multibeam vendor format
2117_20040901_125624_raw.mb56.gz 65.39MB Simrad multibeam vendor format
2118_20040901_145658_raw.mb56.gz 61.30MB Simrad multibeam vendor format
2119_20040901_165049_raw.mb56.gz 65.54MB Simrad multibeam vendor format
2120_20040901_185328_raw.mb56.gz 68.05MB Simrad multibeam vendor format
2121_20040901_205758_raw.mb56.gz 63.86MB Simrad multibeam vendor format
2122_20040901_225323_raw.mb56.gz 69.27MB Simrad multibeam vendor format
2123_20040902_005908_raw.mb56.gz 64.54MB Simrad multibeam vendor format
2124_20040902_025854_raw.mb56.gz 61.32MB Simrad multibeam vendor format
2125_20040902_045030_raw.mb56.gz 58.21MB Simrad multibeam vendor format
2126_20040902_064643_raw.mb56.gz 63.65MB Simrad multibeam vendor format
2127_20040902_084312_raw.mb56.gz 68.92MB Simrad multibeam vendor format
2128_20040902_104521_raw.mb56.gz 65.54MB Simrad multibeam vendor format
2129_20040902_124228_raw.mb56.gz 62.71MB Simrad multibeam vendor format
2130_20040902_153307_raw.mb56.gz 65.07MB Simrad multibeam vendor format
2131_20040902_172857_raw.mb56.gz 64.99MB Simrad multibeam vendor format
2132_20040902_192504_raw.mb56.gz 67.16MB Simrad multibeam vendor format
2133_20040902_212334_raw.mb56.gz 66.12MB Simrad multibeam vendor format
2134_20040902_232322_raw.mb56.gz 69.13MB Simrad multibeam vendor format
2135_20040903_012503_raw.mb56.gz 79.12MB Simrad multibeam vendor format
2136_20040903_034343_raw.mb56.gz 61.45MB Simrad multibeam vendor format
2137_20040903_053436_raw.mb56.gz 13.38MB Simrad multibeam vendor format
2138_20040903_060017_raw.mb56.gz 2.31MB Simrad multibeam vendor format
2139_20040903_061343_raw.mb56.gz 57.61MB Simrad multibeam vendor format
2140_20040903_075359_raw.mb56.gz 64.07MB Simrad multibeam vendor format
2141_20040903_094613_raw.mb56.gz 70.59MB Simrad multibeam vendor format
2142_20040903_114936_raw.mb56.gz 65.64MB Simrad multibeam vendor format
2143_20040903_134709_raw.mb56.gz 40.08MB Simrad multibeam vendor format
2144_20040903_154937_raw.mb56.gz 37.51MB Simrad multibeam vendor format
2145_20040903_165754_raw.mb56.gz 72.67MB Simrad multibeam vendor format
2146_20040903_190701_raw.mb56.gz 67.99MB Simrad multibeam vendor format
2147_20040903_210422_raw.mb56.gz 66.02MB Simrad multibeam vendor format
2148_20040903_225824_raw.mb56.gz 68.29MB Simrad multibeam vendor format
2149_20040904_005958_raw.mb56.gz 70.50MB Simrad multibeam vendor format
2150_20040904_030357_raw.mb56.gz 73.39MB Simrad multibeam vendor format
2151_20040904_051521_raw.mb56.gz 65.68MB Simrad multibeam vendor format
2152_20040904_070739_raw.mb56.gz 72.37MB Simrad multibeam vendor format
2153_20040904_091446_raw.mb56.gz 3.21MB Simrad multibeam vendor format
2154_20040904_092854_raw.mb56.gz 65.77MB Simrad multibeam vendor format
2155_20040904_112444_raw.mb56.gz 68.83MB Simrad multibeam vendor format
2156_20040904_132928_raw.mb56.gz 34.57MB Simrad multibeam vendor format
2157_20040904_153329_raw.mb56.gz 33.97MB Simrad multibeam vendor format
2158_20040904_163758_raw.mb56.gz 67.48MB Simrad multibeam vendor format
2159_20040904_183528_raw.mb56.gz 68.59MB Simrad multibeam vendor format
2160_20040904_203356_raw.mb56.gz 65.69MB Simrad multibeam vendor format
2161_20040904_232021_raw.mb56.gz 92.71MB Simrad multibeam vendor format
2162_20040905_024334_raw.mb56.gz 98.31MB Simrad multibeam vendor format
2163_20040905_055423_raw.mb56.gz 99.72MB Simrad multibeam vendor format
2164_20040905_092900_raw.mb56.gz 102.39MB Simrad multibeam vendor format
2165_20040905_133839_raw.mb56.gz 92.03MB Simrad multibeam vendor format
2166_20040905_155946_raw.mb56.gz 66.22MB Simrad multibeam vendor format
2167_20040905_190429_raw.mb56.gz 49.40MB Simrad multibeam vendor format
2168_20040905_202146_raw.mb56.gz 18.36MB Simrad multibeam vendor format
2169_20040905_205757_raw.mb56.gz 69.68MB Simrad multibeam vendor format
2170_20040905_230103_raw.mb56.gz 66.04MB Simrad multibeam vendor format
2171_20040906_005722_raw.mb56.gz 67.83MB Simrad multibeam vendor format
2172_20040906_025509_raw.mb56.gz 67.48MB Simrad multibeam vendor format
2173_20040906_045111_raw.mb56.gz 74.12MB Simrad multibeam vendor format
2174_20040906_065626_raw.mb56.gz 71.04MB Simrad multibeam vendor format
2175_20040906_085630_raw.mb56.gz 72.43MB Simrad multibeam vendor format
2176_20040906_110058_raw.mb56.gz 69.35MB Simrad multibeam vendor format
2177_20040906_130009_raw.mb56.gz 44.55MB Simrad multibeam vendor format
2178_20040906_151200_raw.mb56.gz 25.70MB Simrad multibeam vendor format
2179_20040906_160243_raw.mb56.gz 72.48MB Simrad multibeam vendor format
2180_20040906_180616_raw.mb56.gz 73.69MB Simrad multibeam vendor format
2181_20040906_201127_raw.mb56.gz 73.35MB Simrad multibeam vendor format
2182_20040906_221338_raw.mb56.gz 70.20MB Simrad multibeam vendor format
2183_20040907_001236_raw.mb56.gz 74.46MB Simrad multibeam vendor format
2184_20040907_021303_raw.mb56.gz 2.93MB Simrad multibeam vendor format
2185_20040907_023617_raw.mb56.gz 73.38MB Simrad multibeam vendor format
2186_20040907_044315_raw.mb56.gz 12.90MB Simrad multibeam vendor format
2187_20040907_051209_raw.mb56.gz 10.50MB Simrad multibeam vendor format
2188_20040907_054713_raw.mb56.gz 5.98MB Simrad multibeam vendor format
2189_20040907_060847_raw.mb56.gz 11.12MB Simrad multibeam vendor format
2190_20040907_070838_raw.mb56.gz 73.10MB Simrad multibeam vendor format
2191_20040907_091135_raw.mb56.gz 77.44MB Simrad multibeam vendor format
2192_20040907_121843_raw.mb56.gz 73.07MB Simrad multibeam vendor format
2193_20040907_142107_raw.mb56.gz 43.87MB Simrad multibeam vendor format
2194_20040907_163539_raw.mb56.gz 44.01MB Simrad multibeam vendor format
2195_20040907_175338_raw.mb56.gz 78.64MB Simrad multibeam vendor format
2196_20040907_204022_raw.mb56.gz 73.97MB Simrad multibeam vendor format
2197_20040907_223951_raw.mb56.gz 76.68MB Simrad multibeam vendor format
2198_20040908_004341_raw.mb56.gz 72.26MB Simrad multibeam vendor format
2199_20040908_023919_raw.mb56.gz 79.38MB Simrad multibeam vendor format
2200_20040908_044730_raw.mb56.gz 69.68MB Simrad multibeam vendor format
2200_20040908_063132_raw.mb56.gz 4.21MB Simrad multibeam vendor format
2201_20040908_064940_raw.mb56.gz 79.66MB Simrad multibeam vendor format
2202_20040908_090132_raw.mb56.gz 76.19MB Simrad multibeam vendor format
2203_20040908_110134_raw.mb56.gz 52.14MB Simrad multibeam vendor format
2204_20040908_130358_raw.mb56.gz 49.17MB Simrad multibeam vendor format
2205_20040908_142729_raw.mb56.gz 18.70MB Simrad multibeam vendor format
2206_20040908_145902_raw.mb56.gz 16.61MB Simrad multibeam vendor format
2207_20040908_152808_raw.mb56.gz 18.16MB Simrad multibeam vendor format
2208_20040908_155938_raw.mb56.gz 15.91MB Simrad multibeam vendor format
2209_20040908_162750_raw.mb56.gz 82.58MB Simrad multibeam vendor format
2210_20040908_183445_raw.mb56.gz 75.77MB Simrad multibeam vendor format
2211_20040908_203137_raw.mb56.gz 76.53MB Simrad multibeam vendor format
2212_20040908_222958_raw.mb56.gz 75.68MB Simrad multibeam vendor format
2213_20040909_002700_raw.mb56.gz 31.63MB Simrad multibeam vendor format
2214_20040909_014619_raw.mb56.gz 51.00MB Simrad multibeam vendor format
2215_20040909_030803_raw.mb56.gz 78.43MB Simrad multibeam vendor format
2216_20040909_050609_raw.mb56.gz 12.38MB Simrad multibeam vendor format
2217_20040909_052717_raw.mb56.gz 9.03MB Simrad multibeam vendor format
2218_20040909_054548_raw.mb56.gz 79.78MB Simrad multibeam vendor format
2219_20040909_074832_raw.mb56.gz 76.03MB Simrad multibeam vendor format
2220_20040909_094428_raw.mb56.gz 85.14MB Simrad multibeam vendor format
2221_20040909_115100_raw.mb56.gz 42.40MB Simrad multibeam vendor format
2222_20040909_145611_raw.mb56.gz 37.20MB Simrad multibeam vendor format
2223_20040909_160702_raw.mb56.gz 56.39MB Simrad multibeam vendor format
2224_20040909_171809_raw.mb56.gz 54.99MB Simrad multibeam vendor format
2225_20040909_183008_raw.mb56.gz 19.15MB Simrad multibeam vendor format
2226_20040909_192909_raw.mb56.gz 28.89MB Simrad multibeam vendor format
2227_20040909_201454_raw.mb56.gz 25.98MB Simrad multibeam vendor format
2228_20040909_205606_raw.mb56.gz 29.61MB Simrad multibeam vendor format
2229_20040909_214157_raw.mb56.gz 28.23MB Simrad multibeam vendor format
2230_20040909_222658_raw.mb56.gz 29.15MB Simrad multibeam vendor format
2231_20040909_231246_raw.mb56.gz 26.68MB Simrad multibeam vendor format
2232_20040909_235507_raw.mb56.gz 25.77MB Simrad multibeam vendor format
2233_20040910_003640_raw.mb56.gz 25.26MB Simrad multibeam vendor format
2234_20040910_011704_raw.mb56.gz 26.08MB Simrad multibeam vendor format
2235_20040910_015740_raw.mb56.gz 24.87MB Simrad multibeam vendor format
2236_20040910_023713_raw.mb56.gz 23.78MB Simrad multibeam vendor format
2237_20040910_031530_raw.mb56.gz 24.16MB Simrad multibeam vendor format
2238_20040910_035344_raw.mb56.gz 23.70MB Simrad multibeam vendor format
2239_20040910_043347_raw.mb56.gz 23.14MB Simrad multibeam vendor format
2240_20040910_051219_raw.mb56.gz 19.03MB Simrad multibeam vendor format
2241_20040910_054539_raw.mb56.gz 19.22MB Simrad multibeam vendor format
2242_20040910_061838_raw.mb56.gz 3.47MB Simrad multibeam vendor format
2243_20040910_074828_raw.mb56.gz 20.07MB Simrad multibeam vendor format
2244_20040910_085005_raw.mb56.gz 1.51MB Simrad multibeam vendor format
2245_20040910_085955_raw.mb56.gz 9.41MB Simrad multibeam vendor format
2246_20040910_092207_raw.mb56.gz 5.63MB Simrad multibeam vendor format
2247_20040910_093659_raw.mb56.gz 8.04MB Simrad multibeam vendor format
2248_20040910_100133_raw.mb56.gz 65.18MB Simrad multibeam vendor format
2249_20040910_114102_raw.mb56.gz 62.12MB Simrad multibeam vendor format
2250_20040910_131738_raw.mb56.gz 62.53MB Simrad multibeam vendor format
2251_20040910_145638_raw.mb56.gz 18.91MB Simrad multibeam vendor format
2252_20040910_162242_raw.mb56.gz 23.34MB Simrad multibeam vendor format
2253_20040910_171100_raw.mb56.gz 42.51MB Simrad multibeam vendor format
2254_20040910_183626_raw.mb56.gz 38.32MB Simrad multibeam vendor format
2255_20040910_194102_raw.mb56.gz 51.77MB Simrad multibeam vendor format
2256_20040910_210921_raw.mb56.gz 16.92MB Simrad multibeam vendor format
2257_20040910_214012_raw.mb56.gz 20.28MB Simrad multibeam vendor format
2258_20040910_222013_raw.mb56.gz 39.81MB Simrad multibeam vendor format
2259_20040911_013900_raw.mb56.gz 40.55MB Simrad multibeam vendor format
2260_20040911_052227_raw.mb56.gz 42.12MB Simrad multibeam vendor format
2261_20040911_074919_raw.mb56.gz 46.94MB Simrad multibeam vendor format
2262_20040911_090158_raw.mb56.gz 1.61MB Simrad multibeam vendor format
2263_20040911_103156_raw.mb56.gz 41.65MB Simrad multibeam vendor format
2264_20040911_135539_raw.mb56.gz 42.65MB Simrad multibeam vendor format
2265_20040911_151052_raw.mb56.gz 1.46MB Simrad multibeam vendor format
2266_20040911_173535_raw.mb56.gz 40.18MB Simrad multibeam vendor format
2267_20040911_183958_raw.mb56.gz 104.43MB Simrad multibeam vendor format
2268_20040911_211107_raw.mb56.gz 46.08MB Simrad multibeam vendor format
2269_20040912_001115_raw.mb56.gz 42.89MB Simrad multibeam vendor format
2270_20040912_012143_raw.mb56.gz 88.79MB Simrad multibeam vendor format
2271_20040912_032248_raw.mb56.gz 44.02MB Simrad multibeam vendor format
2272_20040912_042825_raw.mb56.gz 90.30MB Simrad multibeam vendor format
2273_20040912_063604_raw.mb56.gz 47.07MB Simrad multibeam vendor format
2274_20040912_100531_raw.mb56.gz 51.61MB Simrad multibeam vendor format
2275_20040912_135505_raw.mb56.gz 25.57MB Simrad multibeam vendor format
2276_20040912_165033_raw.mb56.gz 4.56MB Simrad multibeam vendor format
2277_20040912_221131_raw.mb56.gz 43.62MB Simrad multibeam vendor format
2278_20040912_231613_raw.mb56.gz 85.02MB Simrad multibeam vendor format
2279_20040913_011621_raw.mb56.gz 41.46MB Simrad multibeam vendor format
2280_20040913_032334_raw.mb56.gz 3.47MB Simrad multibeam vendor format
2281_20040913_063303_raw.mb56.gz 2.85MB Simrad multibeam vendor format
2282_20040914_080339_raw.mb56.gz 50.02MB Simrad multibeam vendor format
2283_20040914_091603_raw.mb56.gz 15.94MB Simrad multibeam vendor format
2284_20040914_111335_raw.mb56.gz 49.70MB Simrad multibeam vendor format
2285_20040914_131649_raw.mb56.gz 7.62MB Simrad multibeam vendor format
2286_20040914_134658_raw.mb56.gz 9.20MB Simrad multibeam vendor format
2287_20040914_154640_raw.mb56.gz 47.57MB Simrad multibeam vendor format
2288_20040914_165604_raw.mb56.gz 67.83MB Simrad multibeam vendor format
2289_20040914_183321_raw.mb56.gz 48.22MB Simrad multibeam vendor format
2290_20040914_194614_raw.mb56.gz 57.07MB Simrad multibeam vendor format
2291_20040914_210741_raw.mb56.gz 54.95MB Simrad multibeam vendor format
2292_20040914_222644_raw.mb56.gz 63.99MB Simrad multibeam vendor format
2293_20040914_235747_raw.mb56.gz 64.61MB Simrad multibeam vendor format
2294_20040915_012913_raw.mb56.gz 43.32MB Simrad multibeam vendor format
2295_20040915_023859_raw.mb56.gz 8.35MB Simrad multibeam vendor format
2296_20040915_025626_raw.mb56.gz 35.80MB Simrad multibeam vendor format
2297_20040915_034955_raw.mb56.gz 56.70MB Simrad multibeam vendor format
2298_20040915_051105_raw.mb56.gz 57.19MB Simrad multibeam vendor format
2299_20040915_064656_raw.mb56.gz 33.24MB Simrad multibeam vendor format
2300_20040915_083532_raw.mb56.gz 15.75MB Simrad multibeam vendor format
2301_20040915_091558_raw.mb56.gz 39.67MB Simrad multibeam vendor format
2302_20040915_103538_raw.mb56.gz 39.09MB Simrad multibeam vendor format
2303_20040915_114639_raw.mb56.gz 36.61MB Simrad multibeam vendor format
2304_20040915_144216_raw.mb56.gz 24.14MB Simrad multibeam vendor format
2305_20040915_153727_raw.mb56.gz 2.31MB Simrad multibeam vendor format
2306_20040915_154850_raw.mb56.gz 2.34MB Simrad multibeam vendor format
2307_20040915_171528_raw.mb56.gz 55.50MB Simrad multibeam vendor format
2308_20040915_183851_raw.mb56.gz 24.81MB Simrad multibeam vendor format
2309_20040915_190817_raw.mb56.gz 1.88MB Simrad multibeam vendor format
2310_20040915_191425_raw.mb56.gz 24.68MB Simrad multibeam vendor format
2311_20040915_200334_raw.mb56.gz 25.38MB Simrad multibeam vendor format
2312_20040915_204723_raw.mb56.gz 12.85MB Simrad multibeam vendor format
2313_20040915_210835_raw.mb56.gz 21.56MB Simrad multibeam vendor format
2314_20040915_213927_raw.mb56.gz 20.97MB Simrad multibeam vendor format
2315_20040915_222351_raw.mb56.gz 3.99MB Simrad multibeam vendor format
2316_20040915_230359_raw.mb56.gz 11.51MB Simrad multibeam vendor format
2317_20040916_001210_raw.mb56.gz 42.61MB Simrad multibeam vendor format
2318_20040916_011852_raw.mb56.gz 44.00MB Simrad multibeam vendor format
2319_20040916_022541_raw.mb56.gz 35.37MB Simrad multibeam vendor format
2320_20040916_032231_raw.mb56.gz 49.28MB Simrad multibeam vendor format
2321_20040916_043827_raw.mb56.gz 37.33MB Simrad multibeam vendor format
2322_20040916_053830_raw.mb56.gz 51.07MB Simrad multibeam vendor format
2323_20040916_071921_raw.mb56.gz 43.44MB Simrad multibeam vendor format
2324_20040916_161606_raw.mb56.gz 30.28MB Simrad multibeam vendor format
2325_20040916_170222_raw.mb56.gz 30.48MB Simrad multibeam vendor format
2326_20040916_180244_raw.mb56.gz 25.92MB Simrad multibeam vendor format
2327_20040916_184815_raw.mb56.gz 27.65MB Simrad multibeam vendor format
2328_20040916_193200_raw.mb56.gz 24.50MB Simrad multibeam vendor format
2329_20040916_200857_raw.mb56.gz 18.44MB Simrad multibeam vendor format
2330_20040916_203950_raw.mb56.gz 20.86MB Simrad multibeam vendor format
2331_20040916_211717_raw.mb56.gz 12.99MB Simrad multibeam vendor format
2332_20040916_213847_raw.mb56.gz 8.38MB Simrad multibeam vendor format
2333_20040916_215459_raw.mb56.gz 2.40MB Simrad multibeam vendor format
2334_20040916_220355_raw.mb56.gz 22.54MB Simrad multibeam vendor format
2335_20040916_223312_raw.mb56.gz 38.98MB Simrad multibeam vendor format
2336_20040916_232859_raw.mb56.gz 12.63MB Simrad multibeam vendor format
2337_20040916_234958_raw.mb56.gz 15.62MB Simrad multibeam vendor format
2338_20040917_001823_raw.mb56.gz 13.45MB Simrad multibeam vendor format
2339_20040917_004212_raw.mb56.gz 8.98MB Simrad multibeam vendor format
2340_20040917_010131_raw.mb56.gz 10.61MB Simrad multibeam vendor format
2341_20040917_014942_raw.mb56.gz 30.55MB Simrad multibeam vendor format
2342_20040917_023210_raw.mb56.gz 41.00MB Simrad multibeam vendor format
2343_20040917_033013_raw.mb56.gz 33.66MB Simrad multibeam vendor format
2344_20040917_041555_raw.mb56.gz 40.22MB Simrad multibeam vendor format
2345_20040917_051309_raw.mb56.gz 33.26MB Simrad multibeam vendor format
2346_20040917_055854_raw.mb56.gz 37.37MB Simrad multibeam vendor format
2347_20040917_065237_raw.mb56.gz 32.25MB Simrad multibeam vendor format
2348_20040917_073705_raw.mb56.gz 34.43MB Simrad multibeam vendor format
2349_20040917_082852_raw.mb56.gz 11.60MB Simrad multibeam vendor format
2350_20040917_093044_raw.mb56.gz 25.13MB Simrad multibeam vendor format
2351_20040917_100637_raw.mb56.gz 31.79MB Simrad multibeam vendor format
2352_20040917_110500_raw.mb56.gz 35.97MB Simrad multibeam vendor format
2353_20040917_115311_raw.mb56.gz 32.90MB Simrad multibeam vendor format
2354_20040917_124620_raw.mb56.gz 34.61MB Simrad multibeam vendor format
2355_20040917_133642_raw.mb56.gz 1.47MB Simrad multibeam vendor format
2356_20040917_134806_raw.mb56.gz 38.89MB Simrad multibeam vendor format
2357_20040917_144603_raw.mb56.gz 45.16MB Simrad multibeam vendor format
2358_20040917_155051_raw.mb56.gz 27.93MB Simrad multibeam vendor format
2359_20040917_163219_raw.mb56.gz 21.12MB Simrad multibeam vendor format
2360_20040917_171845_raw.mb56.gz 23.97MB Simrad multibeam vendor format
2361_20040917_183758_raw.mb56.gz 39.59MB Simrad multibeam vendor format
2362_20040917_205454_raw.mb56.gz 31.79MB Simrad multibeam vendor format
2363_20040917_225643_raw.mb56.gz 27.15MB Simrad multibeam vendor format
2364_20040917_234232_raw.mb56.gz 3.80MB Simrad multibeam vendor format
2365_20040918_003010_raw.mb56.gz 21.76MB Simrad multibeam vendor format
2366_20040918_014200_raw.mb56.gz 17.34MB Simrad multibeam vendor format
2367_20040918_024033_raw.mb56.gz 13.73MB Simrad multibeam vendor format
2368_20040918_033732_raw.mb56.gz 9.86MB Simrad multibeam vendor format
2369_20040918_042316_raw.mb56.gz 7.87MB Simrad multibeam vendor format
2370_20040918_043845_raw.mb56.gz 0.87MB Simrad multibeam vendor format
2371_20040918_045050_raw.mb56.gz 6.24MB Simrad multibeam vendor format
2372_20040918_050304_raw.mb56.gz 1.02MB Simrad multibeam vendor format
2373_20040918_052033_raw.mb56.gz 3.29MB Simrad multibeam vendor format
2374_20040918_054611_raw.mb56.gz 0.92MB Simrad multibeam vendor format
2375_20040918_060043_raw.mb56.gz 22.31MB Simrad multibeam vendor format
2376_20040918_075613_raw.mb56.gz 47.15MB Simrad multibeam vendor format
2377_20040918_090253_raw.mb56.gz 8.65MB Simrad multibeam vendor format
2378_20040918_104127_raw.mb56.gz 48.37MB Simrad multibeam vendor format
2379_20040918_115208_raw.mb56.gz 13.78MB Simrad multibeam vendor format
2380_20040918_132922_raw.mb56.gz 47.56MB Simrad multibeam vendor format
2381_20040918_163008_raw.mb56.gz 49.85MB Simrad multibeam vendor format
2382_20040918_174120_raw.mb56.gz 31.79MB Simrad multibeam vendor format
2383_20040918_190311_raw.mb56.gz 10.50MB Simrad multibeam vendor format
2384_20040918_192249_raw.mb56.gz 48.01MB Simrad multibeam vendor format
2385_20040918_203535_raw.mb56.gz 9.06MB Simrad multibeam vendor format
2386_20040918_211024_raw.mb56.gz 75.07MB Simrad multibeam vendor format
2387_20040918_225055_raw.mb56.gz 51.60MB Simrad multibeam vendor format
2388_20040919_001232_raw.mb56.gz 79.96MB Simrad multibeam vendor format
2389_20040919_020047_raw.mb56.gz 50.55MB Simrad multibeam vendor format
2390_20040919_031517_raw.mb56.gz 66.68MB Simrad multibeam vendor format
2391_20040919_044741_raw.mb56.gz 49.05MB Simrad multibeam vendor format
2392_20040919_060955_raw.mb56.gz 64.13MB Simrad multibeam vendor format
2393_20040919_073756_raw.mb56.gz 50.04MB Simrad multibeam vendor format
2394_20040919_085138_raw.mb56.gz 72.00MB Simrad multibeam vendor format
2395_20040919_103443_raw.mb56.gz 51.65MB Simrad multibeam vendor format
2396_20040919_115035_raw.mb56.gz 20.12MB Simrad multibeam vendor format
2397_20040919_123349_raw.mb56.gz 4.35MB Simrad multibeam vendor format
2398_20040919_125431_raw.mb56.gz 63.11MB Simrad multibeam vendor format
2399_20040919_141945_raw.mb56.gz 51.88MB Simrad multibeam vendor format
2400_20040919_160119_raw.mb56.gz 4.30MB Simrad multibeam vendor format
2401_20040919_161442_raw.mb56.gz 1.46MB Simrad multibeam vendor format
2402_20040919_162539_raw.mb56.gz 2.32MB Simrad multibeam vendor format
2403_20040919_190653_raw.mb56.gz 52.46MB Simrad multibeam vendor format
2404_20040919_230803_raw.mb56.gz 52.94MB Simrad multibeam vendor format
2405_20040920_012833_raw.mb56.gz 22.97MB Simrad multibeam vendor format
2406_20040920_060810_raw.mb56.gz 1.21MB Simrad multibeam vendor format
2407_20040920_063458_raw.mb56.gz 52.29MB Simrad multibeam vendor format
2408_20040920_104545_raw.mb56.gz 57.26MB Simrad multibeam vendor format
2409_20040920_153028_raw.mb56.gz 53.98MB Simrad multibeam vendor format
2410_20040920_191518_raw.mb56.gz 53.40MB Simrad multibeam vendor format
2411_20040920_225802_raw.mb56.gz 54.30MB Simrad multibeam vendor format
2412_20040921_011223_raw.mb56.gz 1.09MB Simrad multibeam vendor format
2413_20040921_023450_raw.mb56.gz 55.80MB Simrad multibeam vendor format
2414_20040921_054700_raw.mb56.gz 52.08MB Simrad multibeam vendor format
2415_20040921_070211_raw.mb56.gz 76.81MB Simrad multibeam vendor format
2416_20040921_085310_raw.mb56.gz 55.92MB Simrad multibeam vendor format
2417_20040921_101121_raw.mb56.gz 55.14MB Simrad multibeam vendor format
2418_20040921_112920_raw.mb56.gz 47.34MB Simrad multibeam vendor format
2419_20040921_124623_raw.mb56.gz 36.78MB Simrad multibeam vendor format
2420_20040921_140832_raw.mb56.gz 24.27MB Simrad multibeam vendor format
2421_20040921_145236_raw.mb56.gz 23.90MB Simrad multibeam vendor format
2422_20040921_153332_raw.mb56.gz 56.55MB Simrad multibeam vendor format
2423_20040921_171322_raw.mb56.gz 63.78MB Simrad multibeam vendor format
2424_20040921_183756_raw.mb56.gz 55.94MB Simrad multibeam vendor format
2425_20040921_201716_raw.mb56.gz 47.12MB Simrad multibeam vendor format
2426_20040921_211727_raw.mb56.gz 44.16MB Simrad multibeam vendor format
2427_20040921_221433_raw.mb56.gz 8.09MB Simrad multibeam vendor format
2428_20040921_223111_raw.mb56.gz 10.82MB Simrad multibeam vendor format
2429_20040921_225015_raw.mb56.gz 13.88MB Simrad multibeam vendor format
2430_20040921_231126_raw.mb56.gz 14.13MB Simrad multibeam vendor format
2431_20040921_233510_raw.mb56.gz 19.16MB Simrad multibeam vendor format
2432_20040922_000342_raw.mb56.gz 17.53MB Simrad multibeam vendor format
2433_20040922_003132_raw.mb56.gz 22.71MB Simrad multibeam vendor format
2434_20040922_010458_raw.mb56.gz 19.92MB Simrad multibeam vendor format
2435_20040922_013552_raw.mb56.gz 50.71MB Simrad multibeam vendor format
2436_20040922_024419_raw.mb56.gz 25.15MB Simrad multibeam vendor format
2437_20040922_032215_raw.mb56.gz 27.64MB Simrad multibeam vendor format
2438_20040922_040320_raw.mb56.gz 25.37MB Simrad multibeam vendor format
2439_20040922_044411_raw.mb56.gz 19.00MB Simrad multibeam vendor format
2440_20040922_052345_raw.mb56.gz 7.29MB Simrad multibeam vendor format
2441_20040922_053829_raw.mb56.gz 20.90MB Simrad multibeam vendor format
2442_20040922_061123_raw.mb56.gz 24.90MB Simrad multibeam vendor format
2443_20040922_065008_raw.mb56.gz 22.67MB Simrad multibeam vendor format
2444_20040922_072641_raw.mb56.gz 6.73MB Simrad multibeam vendor format
2445_20040922_073917_raw.mb56.gz 8.48MB Simrad multibeam vendor format
2446_20040922_075801_raw.mb56.gz 29.08MB Simrad multibeam vendor format
2447_20040922_084016_raw.mb56.gz 17.72MB Simrad multibeam vendor format
2448_20040922_095151_raw.mb56.gz 18.12MB Simrad multibeam vendor format
2449_20040922_110206_raw.mb56.gz 18.35MB Simrad multibeam vendor format
2450_20040922_121457_raw.mb56.gz 20.22MB Simrad multibeam vendor format
2451_20040922_132502_raw.mb56.gz 19.51MB Simrad multibeam vendor format
2452_20040922_143120_raw.mb56.gz 19.44MB Simrad multibeam vendor format
2453_20040922_153302_raw.mb56.gz 18.97MB Simrad multibeam vendor format
2454_20040922_163245_raw.mb56.gz 19.34MB Simrad multibeam vendor format
2455_20040922_173340_raw.mb56.gz 20.19MB Simrad multibeam vendor format
2456_20040922_180044_raw.mb56.gz 17.49MB Simrad multibeam vendor format
2457_20040922_183520_raw.mb56.gz 26.32MB Simrad multibeam vendor format
2458_20040922_191314_raw.mb56.gz 12.75MB Simrad multibeam vendor format
2459_20040922_193647_raw.mb56.gz 4.91MB Simrad multibeam vendor format
2460_20040922_201940_raw.mb56.gz 45.26MB Simrad multibeam vendor format
2460_20040922_211840_raw.mb56.gz 27.02MB Simrad multibeam vendor format
2461_20040922_220403_raw.mb56.gz 404.75MB Simrad multibeam vendor format
2462_20040924_051845_raw.mb56.gz 46.6KB Simrad multibeam vendor format
2465_20040924_052055_raw.mb56.gz 459.55MB Simrad multibeam vendor format
2466_20040924_145823_raw.mb56.gz 46.79MB Simrad multibeam vendor format
2467_20040924_172001_raw.mb56.gz 35.48MB Simrad multibeam vendor format
2468_20040924_195001_raw.mb56.gz 39.09MB Simrad multibeam vendor format
2469_20040924_211216_raw.mb56.gz 25.67MB Simrad multibeam vendor format
2470_20040924_220019_raw.mb56.gz 12.01MB Simrad multibeam vendor format
2471_20040924_222632_raw.mb56.gz 25.95MB Simrad multibeam vendor format
2472_20040924_231657_raw.mb56.gz 35.62MB Simrad multibeam vendor format
2473_20040925_004204_raw.mb56.gz 56.24MB Simrad multibeam vendor format
2474_20040925_020625_raw.mb56.gz 0.88MB Simrad multibeam vendor format
2475_20040925_022119_raw.mb56.gz 22.36MB Simrad multibeam vendor format
2477_20040925_051508_raw.mb56.gz 1.00MB Simrad multibeam vendor format
2481_20040925_071750_raw.mb56.gz 78.22MB Simrad multibeam vendor format
2482_20040925_093115_raw.mb56.gz 33.39MB Simrad multibeam vendor format
2483_20040925_102703_raw.mb56.gz 32.11MB Simrad multibeam vendor format
2484_20040925_115802_raw.mb56.gz 86.02MB Simrad multibeam vendor format
2485_20040925_142501_raw.mb56.gz 76.72MB Simrad multibeam vendor format
2486_20040925_162716_raw.mb56.gz 73.90MB Simrad multibeam vendor format
2487_20040925_182924_raw.mb56.gz 50.75MB Simrad multibeam vendor format
2488_20040925_201133_raw.mb56.gz 25.72MB Simrad multibeam vendor format
2489_20040925_205409_raw.mb56.gz 74.68MB Simrad multibeam vendor format
2490_20040925_224726_raw.mb56.gz 73.01MB Simrad multibeam vendor format
2491_20040926_003929_raw.mb56.gz 78.30MB Simrad multibeam vendor format
2492_20040926_024053_raw.mb56.gz 72.30MB Simrad multibeam vendor format
2493_20040926_043223_raw.mb56.gz 77.44MB Simrad multibeam vendor format
2494_20040926_063227_raw.mb56.gz 75.57MB Simrad multibeam vendor format
2495_20040926_082357_raw.mb56.gz 74.55MB Simrad multibeam vendor format
2496_20040926_101349_raw.mb56.gz 76.47MB Simrad multibeam vendor format
2497_20040926_120651_raw.mb56.gz 16.12MB Simrad multibeam vendor format
2498_20040926_123531_raw.mb56.gz 17.46MB Simrad multibeam vendor format
2499_20040926_130859_raw.mb56.gz 73.03MB Simrad multibeam vendor format
2500_20040926_150943_raw.mb56.gz 5.05MB Simrad multibeam vendor format
2501_20040926_152113_raw.mb56.gz 3.29MB Simrad multibeam vendor format
2502_20040926_153159_raw.mb56.gz 2.58MB Simrad multibeam vendor format
2503_20040926_154029_raw.mb56.gz 2.96MB Simrad multibeam vendor format
2504_20040926_160131_raw.mb56.gz 2.33MB Simrad multibeam vendor format
2505_20040926_161046_raw.mb56.gz 1.05MB Simrad multibeam vendor format
2506_20040926_161708_raw.mb56.gz 1.40MB Simrad multibeam vendor format
2507_20040926_163241_raw.mb56.gz 1.06MB Simrad multibeam vendor format
2508_20040926_164601_raw.mb56.gz 1.67MB Simrad multibeam vendor format
2509_20040926_165209_raw.mb56.gz 1.05MB Simrad multibeam vendor format
2510_20040926_170207_raw.mb56.gz 4.77MB Simrad multibeam vendor format
2511_20040926_171347_raw.mb56.gz 10.84MB Simrad multibeam vendor format
2512_20040926_173358_raw.mb56.gz 1.26MB Simrad multibeam vendor format
2513_20040926_174222_raw.mb56.gz 4.26MB Simrad multibeam vendor format
2514_20040926_175224_raw.mb56.gz 3.01MB Simrad multibeam vendor format
2515_20040926_180107_raw.mb56.gz 4.49MB Simrad multibeam vendor format
2516_20040926_181218_raw.mb56.gz 1.52MB Simrad multibeam vendor format
2517_20040926_182727_raw.mb56.gz 57.65MB Simrad multibeam vendor format
2518_20040926_195059_raw.mb56.gz 74.43MB Simrad multibeam vendor format
2519_20040926_213917_raw.mb56.gz 20.31MB Simrad multibeam vendor format
2520_20040926_221123_raw.mb56.gz 16.13MB Simrad multibeam vendor format
2521_20040926_223832_raw.mb56.gz 14.37MB Simrad multibeam vendor format
2522_20040926_230408_raw.mb56.gz 13.53MB Simrad multibeam vendor format
2523_20040926_232814_raw.mb56.gz 66.76MB Simrad multibeam vendor format
2524_20040927_010756_raw.mb56.gz 69.40MB Simrad multibeam vendor format
2525_20040927_024747_raw.mb56.gz 66.45MB Simrad multibeam vendor format
2526_20040927_042546_raw.mb56.gz 63.69MB Simrad multibeam vendor format
2527_20040927_055840_raw.mb56.gz 65.75MB Simrad multibeam vendor format
2528_20040927_073920_raw.mb56.gz 52.55MB Simrad multibeam vendor format
2529_20040927_085728_raw.mb56.gz 1.54MB Simrad multibeam vendor format
2530_20040927_095634_raw.mb56.gz 5.00MB Simrad multibeam vendor format
2531_20040927_101109_raw.mb56.gz 1.47MB Simrad multibeam vendor format
2532_20040927_102840_raw.mb56.gz 28.22MB Simrad multibeam vendor format
2533_20040927_113422_raw.mb56.gz 25.30MB Simrad multibeam vendor format
2534_20040927_123609_raw.mb56.gz 27.98MB Simrad multibeam vendor format
2535_20040927_133946_raw.mb56.gz 25.76MB Simrad multibeam vendor format
2536_20040927_143900_raw.mb56.gz 86.14MB Simrad multibeam vendor format
2537_20040927_164526_raw.mb56.gz 40.72MB Simrad multibeam vendor format
2538_20040927_182403_raw.mb56.gz 37.27MB Simrad multibeam vendor format
2539_20040927_191347_raw.mb56.gz 72.12MB Simrad multibeam vendor format
2540_20040927_205120_raw.mb56.gz 451.73MB Simrad multibeam vendor format

Metadata Files: 1

Files File Size Description
CE04_05_Multibeam.xml NGDC created ISO metadata